Location: Songkhla
(7.2000°N, 100.6000°E)
Time: 19:40:37
(UTC+07:00)

ISS - Pass Details

Date: 25 April 2026
Orbit: 414 x 424 km, 51.6° (Epoch: 19 May)

Event Time Altitude Azimuth Distance (km) Brightness Sun altitude
Rises 11:41:55 0° 306° (NW) 2,367 0.0 79.8°
Reaches altitude 10° 11:44:15 10° 292° (WNW) 1,504 -0.9 80.2°
Maximum altitude 11:47:05 25° 235° (SW) 903 -1.8 80.8°
Drops below altitude 10° 11:49:55 10° 178° (S) 1,504 -0.9 81.3°
Sets 11:52:15 0° 164° (SSE) 2,368 0.0 81.7°
